Total_Precipitation_Accumulation
0.71 0.39 0.62 0.63 0.54 0.46 0.44 0.45 0.45 0.43 0.44 0.42 0.39 0.37 0.34 0.30 0.26 0.28 0.27 0.24 0.23 0.25 0.30 0.35 0.35 0.38 0.37 0.38 0.42 0.48 0.48 0.48 0.43 0.35 0.31 0.33 0.38 0.45 0.59 0.73 1.02 1.37 0.96
0.48 0.32 0.58 0.65 0.54 0.48 0.45 0.41 0.40 0.40 0.42 0.40 0.39 0.37 0.34 0.31 0.28 0.28 0.26 0.24 0.23 0.24 0.27 0.32 0.37 0.40 0.44 0.46 0.55 0.61 0.58 0.53 0.54 0.51 0.54 0.63 0.55 0.51 0.54 0.68 1.09 1.34 0.98
0.39 0.32 0.42 0.59 0.55 0.51 0.50 0.48 0.43 0.45 0.44 0.39 0.40 0.38 0.36 0.33 0.31 0.30 0.27 0.26 0.25 0.25 0.25 0.31 0.40 0.46 0.48 0.56 0.63 0.67 0.67 0.65 0.64 0.62 0.92 1.43 1.08 0.72 0.70 0.75 0.81 0.87 0.88
0.32 0.31 0.42 0.60 0.61 0.59 0.56 0.54 0.56 0.57 0.51 0.50 0.51 0.47 0.45 0.41 0.36 0.33 0.32 0.30 0.29 0.30 0.33 0.35 0.41 0.50 0.55 0.57 0.59 0.60 0.61 0.65 0.71 0.65 1.03 1.46 1.44 1.02 0.89 0.91 0.79 0.81 0.93
0.34 0.36 0.56 0.72 0.70 0.69 0.62 0.62 0.68 0.65 0.59 0.57 0.56 0.55 0.55 0.50 0.48 0.40 0.37 0.37 0.38 0.42 0.46 0.44 0.47 0.53 0.59 0.61 0.58 0.57 0.59 0.76 0.70 0.63 0.89 1.16 1.51 1.21 0.97 1.00 0.90 0.86 0.95
0.47 0.43 0.55 0.68 0.74 0.73 0.62 0.64 0.72 0.67 0.63 0.56 0.51 0.53 0.53 0.51 0.52 0.46 0.47 0.48 0.46 0.50 0.56 0.58 0.61 0.63 0.63 0.64 0.62 0.66 0.74 0.78 0.66 0.82 0.95 1.15 1.41 1.19 0.94 0.90 0.96 1.01 1.07
0.47 0.38 0.43 0.65 0.70 0.69 0.66 0.70 0.80 0.74 0.67 0.55 0.50 0.54 0.56 0.55 0.54 0.52 0.54 0.55 0.53 0.51 0.56 0.61 0.65 0.65 0.61 0.64 0.64 0.65 0.72 0.73 0.80 0.95 0.96 1.15 1.17 1.03 0.90 0.85 0.99 1.05 1.09
0.69 0.55 0.51 0.67 0.72 0.70 0.73 0.77 0.85 0.85 0.73 0.60 0.56 0.56 0.54 0.55 0.55 0.56 0.57 0.58 0.58 0.56 0.60 0.62 0.62 0.61 0.54 0.55 0.56 0.56 0.67 0.67 0.69 0.81 0.88 1.09 1.08 0.99 0.84 0.81 0.90 0.99 1.09
1.05 0.94 0.84 0.78 0.71 0.74 0.80 0.79 0.94 1.07 0.92 0.73 0.65 0.65 0.58 0.53 0.53 0.53 0.53 0.59 0.60 0.61 0.61 0.60 0.63 0.61 0.56 0.54 0.53 0.58 0.67 0.63 0.60 0.71 0.71 1.00 1.09 0.98 0.87 0.83 0.86 0.98 1.11
1.03 0.95 0.94 1.02 1.00 0.99 1.00 1.07 1.19 1.50 1.38 1.00 0.81 0.69 0.65 0.57 0.55 0.58 0.56 0.58 0.64 0.66 0.67 0.70 0.69 0.68 0.68 0.63 0.60 0.64 0.65 0.51 0.51 0.51 0.56 0.77 1.08 0.95 0.82 0.78 0.76 0.78 0.91
0.77 0.82 0.87 0.93 0.95 0.98 0.96 1.13 1.38 1.66 1.73 1.38 1.10 0.95 0.78 0.55 0.57 0.65 0.59 0.68 0.74 0.76 0.79 0.85 0.84 0.77 0.77 0.68 0.65 0.66 0.55 0.38 0.55 0.57 0.60 0.76 1.00 0.94 0.79 0.65 0.58 0.62 0.67
0.59 0.57 0.58 0.62 0.67 0.72 0.77 1.04 1.27 1.33 1.53 1.31 1.28 1.13 0.98 0.92 0.87 0.69 0.64 0.79 0.85 0.86 0.85 0.90 0.95 0.80 0.67 0.55 0.56 0.57 0.39 0.36 0.51 0.52 0.51 0.82 1.08 1.02 0.81 0.67 0.58 0.58 0.56
0.55 0.52 0.45 0.46 0.48 0.54 0.67 0.88 1.10 1.23 1.40 1.41 1.39 1.33 1.32 1.27 0.94 0.78 0.85 0.88 0.89 0.88 0.79 0.83 0.83 0.64 0.51 0.47 0.50 0.44 0.35 0.36 0.46 0.50 0.58 0.84 1.11 1.09 0.83 0.66 0.57 0.53 0.53
0.50 0.56 0.49 0.37 0.37 0.39 0.47 0.66 0.86 1.07 1.26 1.31 1.14 1.06 1.19 1.20 1.01 0.88 1.00 1.09 1.06 1.01 1.00 1.01 0.92 0.75 0.56 0.49 0.47 0.46 0.41 0.43 0.49 0.55 0.66 0.66 0.93 1.04 0.94 0.73 0.61 0.55 0.56
0.47 0.54 0.56 0.48 0.40 0.39 0.44 0.51 0.58 0.87 1.05 1.20 1.25 1.03 1.15 1.19 1.12 0.98 0.93 1.10 1.06 1.04 1.05 1.05 1.01 0.88 0.76 0.61 0.58 0.55 0.58 0.55 0.53 0.48 0.62 0.59 0.72 0.94 1.02 0.92 0.76 0.65 0.62
0.40 0.47 0.52 0.55 0.54 0.50 0.49 0.51 0.51 0.56 0.67 0.79 0.76 0.73 0.92 1.04 1.00 1.00 0.87 0.92 0.99 1.10 1.25 1.23 1.06 0.98 0.88 0.74 0.74 0.72 0.69 0.64 0.63 0.51 0.60 0.62 0.53 0.60 0.77 0.94 0.94 0.84 0.77
0.39 0.42 0.47 0.54 0.61 0.62 0.63 0.71 0.64 0.59 0.64 0.64 0.60 0.61 0.72 0.83 0.85 0.97 0.94 0.91 0.92 1.10 1.27 1.33 1.23 1.14 0.95 0.86 0.82 0.79 0.71 0.72 0.72 0.61 0.60 0.65 0.55 0.46 0.59 0.82 0.98 0.98 0.88
0.37 0.37 0.39 0.43 0.48 0.53 0.60 0.68 0.73 0.73 0.75 0.71 0.74 0.70 0.66 0.79 0.91 1.03 1.06 0.97 0.95 1.12 1.28 1.37 1.42 1.39 1.24 1.11 0.99 0.88 0.80 0.87 0.81 0.69 0.67 0.70 0.72 0.61 0.60 0.62 0.77 0.95 1.00
0.36 0.32 0.31 0.32 0.32 0.35 0.42 0.54 0.65 0.72 0.80 0.86 0.88 0.86 0.84 0.88 0.92 1.06 1.20 1.20 1.19 1.25 1.29 1.30 1.35 1.31 1.28 1.23 1.10 1.02 0.92 0.92 0.89 0.76 0.76 0.82 0.85 0.82 0.73 0.55 0.53 0.55 0.76
0.30 0.30 0.30 0.31 0.30 0.27 0.31 0.45 0.56 0.63 0.71 0.87 0.94 1.01 1.27 1.36 1.14 1.10 1.21 1.23 1.25 1.38 1.38 1.48 1.59 1.44 1.29 1.33 1.28 1.16 1.03 0.93 0.85 0.84 0.89 0.94 0.94 0.88 0.84 0.71 0.63 0.42 0.48
0.15 0.15 0.18 0.24 0.31 0.29 0.26 0.33 0.44 0.53 0.67 0.81 0.97 1.04 1.27 1.37 1.28 1.29 1.30 1.29 1.29 1.32 1.37 1.52 1.76 1.65 1.48 1.39 1.52 1.43 1.19 0.99 0.90 0.88 0.88 0.98 1.02 0.99 0.97 1.01 0.83 0.63 0.44
0.08 0.08 0.11 0.15 0.24 0.32 0.36 0.41 0.53 0.71 0.83 0.93 1.06 1.13 1.24 1.26 1.25 1.18 1.33 1.42 1.35 1.42 1.49 1.63 1.81 1.86 1.69 1.55 1.75 2.02 1.70 1.36 0.99 0.88 0.87 0.86 0.97 1.03 0.98 0.91 0.86 0.80 0.64
0.04 0.06 0.11 0.19 0.33 0.50 0.66 0.88 1.13 1.41 1.53 1.42 1.27 1.34 1.47 1.53 1.49 1.42 1.48 1.62 1.54 1.54 1.58 1.63 1.66 1.96 2.02 1.86 1.85 2.22 1.92 1.70 1.60 1.12 0.85 0.79 0.98 1.09 1.08 0.97 0.87 0.94 0.91
0.12 0.18 0.28 0.41 0.57 0.74 0.95 1.17 1.43 1.66 1.82 1.84 1.86 1.89 1.87 1.82 1.70 1.59 1.58 1.62 1.64 1.68 1.61 1.51 1.64 1.96 2.29 2.24 2.09 1.92 1.71 1.58 1.76 1.60 1.09 0.84 0.91 1.03 1.12 1.02 0.93 0.96 1.03
0.29 0.41 0.53 0.76 0.93 1.07 1.13 1.23 1.45 1.56 1.63 1.74 1.88 1.93 1.93 1.84 1.71 1.56 1.51 1.54 1.60 1.69 1.68 1.72 1.86 2.12 2.34 2.47 2.39 2.13 1.83 1.62 1.34 1.46 1.44 1.22 1.01 0.92 0.93 1.02 1.08 1.03 1.02
0.57 0.81 0.96 1.07 1.16 1.16 1.14 1.16 1.30 1.43 1.52 1.60 1.73 1.79 1.73 1.59 1.54 1.51 1.49 1.45 1.40 1.47 1.57 1.73 1.96 2.07 2.23 2.41 2.40 2.13 1.92 1.76 1.57 1.48 1.36 1.40 1.38 1.11 0.93 0.92 0.97 0.99 0.99